Regional Weather Roundup
Issued by NWS Grand Forks, ND

Home | Current Version | Previous Version | Text Only | Print | Product List | Glossary Off
Versions: 1 2 3 4 5 6 7 8 9 10 11 12 13 14 15 16 17 18 19 20 21 22 23 24 25 26 27 28 29 30 31 32 33 34 35 36 37 38 39 40 41 42 43 44 45 46 47 48 49 50

000
ASUS43 KFGF 272131
RWRFGF
PRAIRIE TO PINES  WEATHER ROUNDUP
NATIONAL WEATHER SERVICE EASTERN NORTH DAKOTA/GRAND FORKS ND
400 PM CDT THU APR 27 2017

 **SATELLITE DATA USED TO AUGMENT SKY COVER AT AUTOMATED STATIONS**
 *****  WEATHER ACROSS EASTERN NORTH DAKOTA  *****

CITY           SKY/WX    TMP DP  RH WIND       PRES   REMARKS
GRAND FORKS    PTSUNNY   47  33  58 N20G25    29.65F
GRAND FRKS AFB PTSUNNY   45  30  57 N18G25    29.66F
DEVILS LAKE    CLOUDY    47  28  47 N17       29.69S
FARGO          FAIR      37  27  67 N12       29.68F
WAHPETON ARPT  CLOUDY    36  27  69 N16G24    29.69S
$$

 ***** WEATHER ACROSS CENTRAL AND WESTERN NORTH DAKOTA  *****

CITY           SKY/WX    TMP DP  RH WIND       PRES   REMARKS
BISMARCK       FAIR      52  25  35 VRB6      29.71S
MINOT          FAIR      51  11  20 N12G21    29.73S
JAMESTOWN      FAIR      47  30  51 N20G29    29.67F
MINOT AFB      FAIR      50  13  22 NE14      29.72F
GARRISON         N/A     49  21  33 NE8       29.71F
WILLISTON      FAIR      53  18  25 SE9       29.73S
DICKINSON      FAIR      49  22  34 SE10      29.67S
HETTINGER      FAIR      49  24  37 VRB6G20   29.68S
$$

 *****  OTHER AIRPORT OBSERVATIONS IN OUR AREA  *****

CITY           SKY/WX    TMP DP  RH WIND       PRES   REMARKS
WALHALLA       NOT AVBL
GRAFTON AIRPOR MOCLDY    46  32  57 N20G30    29.67S
VALLEY CITY AR MOCLDY    46  30  53 N18       29.67F
CANDO          NOT AVBL
CAVALIER APRT  FAIR      46  30  53 N24       29.66F
GWINNER        PTCLDY    43  32  65 MISG      29.68F
SHEYENNE NWR     N/A     42  29  59 N7        29.95S
ROLLA          FAIR      46  27  46 N23       29.72S
 ***** THE ABOVE OBSERVATIONS ARE NON NWS ARE NOT QUALITY
       CONTROLLED AND MAY MIS-REPORT RAIN FOR SNOW...
$$

  *****  WEATHER ACROSS NORTHERN MINNESOTA  *****

CITY           SKY/WX    TMP DP  RH WIND       PRES   REMARKS
FLAG ISLAND    CLOUDY    28  21  74 N22G29    29.63S WCI  15
WARROAD        FLURRIES  30  25  80 N10G18    29.64F WCI  21
ROSEAU         LGT SNOW  32  27  80 N9        29.65S WCI  24
HALLOCK        CLOUDY    43  28  56 N16G23    29.65S
THF RVR FALLS  CLOUDY    31  24  75 N13       29.66S WCI  21
BAUDETTE       CLOUDY    27  22  81 N10       29.60S WCI  17
WASKISH        CLOUDY    28  21  74 N8G16     29.61S WCI  20
CROOKSTON      CLOUDY    37  27  65 N9        29.67F
STEPHEN NDAWN    N/A     39  30  70 N13         N/A
GREENBUSH NDAW   N/A     32  27  80 NE8         N/A  WCI  25
$$
  *****  WEATHER ACROSS CENTRAL AND WEST MINNESOTA  *****

CITY           SKY/WX    TMP DP  RH WIND       PRES   REMARKS
FOSSTON        CLOUDY    30  21  69 N13       29.65S WCI  20
BEMIDJI        CLOUDY    28  22  79 NW16      29.60S WCI  16
PARK RAPIDS    CLOUDY    31  19  61 N17       29.60S WCI  19
ELBOW LAKE     CLOUDY    31  25  79 NW18      29.67S WCI  19
WADENA         CLOUDY    28  25  86 NW10      29.62S WCI  19
DETROIT LAKES  CLOUDY    32  27  80 NW16      29.65S WCI  21
MOORHEAD       FAIR      36  28  75 N16       29.68F
FERGUS FALLS   CLOUDY    32  25  74 N15G21    29.68R WCI  22
MORRIS MN      CLOUDY    34  27  75 NW17G24   29.68R WCI  23
STAPLES        CLOUDY    28  25  86 NW12      29.62S WCI  18
$$
  *****  WEATHER ELSEWHERE ACROSS MINNESOTA  *****

CITY           SKY/WX    TMP DP  RH WIND       PRES   REMARKS
DULUTH         CLOUDY    29  20  69 NW13      29.52R WCI  19
INTRNTL FALLS  CLOUDY    28  17  63 N10       29.56F WCI  19
ELY            CLOUDY    27  16  63 NW9       29.50S WCI  17
CLOQUET        CLOUDY    28  19  69 NW12G17   29.54S WCI  18
WHEATON        CLOUDY    36  25  64 NW14      29.71S
BRAINERD       CLOUDY    29  21  72 NW15      29.60R WCI  18
HIBBING        CLOUDY    27  18  69 NW17      29.54R WCI  14
ALEXANDRIA     CLOUDY    31  22  69 NW16G23   29.64R WCI  20
SAINT CLOUD    CLOUDY    31  23  72 NW12G21   29.63R WCI  22
MINNEAPOLIS    CLOUDY    35  24  64 W16       29.62R
$$

  *****  WEATHER ACROSS SOUTH DAKOTA  *****

CITY           SKY/WX    TMP DP  RH WIND       PRES   REMARKS
SIOUX FALLS    FAIR      49  34  56 NW10      29.68S
BROOKINGS      FAIR      42  29  59 NW17G24   29.67S
WATERTOWN      FAIR      41  27  57 NW14G23   29.68R
HURON          FAIR      49  31  49 N13G20    29.69F
SISSETON         N/A     40  29  64 N18       29.68F
ABERDEEN       PTSUNNY   46  29  51 N10       29.71S
MITCHELL       FAIR      49  30  48 N9        29.70F
PIERRE         FAIR      48  29  47 N6        29.68F
MOBRIDGE       FAIR      54  25  32 N9        29.66S
RAPID CITY     FAIR      48  34  58 E14       29.63S
$$

  *****  SOME WEATHER IN NEARBY STATES *****

CITY           SKY/WX    TMP DP  RH WIND       PRES   REMARKS
GLASGOW MT     FAIR      55  25  31 SE10      29.67F
GREAT FALLS MT CLOUDY    44  34  67 NW18      29.71R
CHEYENNE WY    CLOUDY    37  31  78 E5        29.55F
SCOTTSBLUFF NE PTSUNNY   49  40  71 SE12      29.54F
OMAHA NE       FAIR      56  34  43 NW8       29.70F
DES MOINES IA  PTSUNNY   56  34  43 W14       29.68F
DAVENPORT IA   CLOUDY    43  35  73 W17       29.72R
CHICAGO IL     CLOUDY    46  37  71 W17G30    29.68R
EAU CLAIRE WI  CLOUDY    34  27  75 W15       29.59R WCI  24
LA CROSSE WI   CLOUDY    41  33  73 W15       29.61R
$$

  *****  SOME NATIONAL WEATHER *****

CITY           SKY/WX    TMP DP  RH WIND       PRES   REMARKS
LA GUARDIA NY  CLOUDY    67  57  70 SE17      29.87S
RALEIGH NC     PTSUNNY   79  56  45 SW14      29.85F
ATLANTA GA     FAIR      79  67  66 SW13      29.81S
NEW ORLEANS LA FAIR      81  61  50 NE7       29.78F
OKLAHOMA CITY  PTSUNNY   67  47  48 SE22G31   29.61F
ALBUQUERQUE NM PTSUNNY   67  33  28 W17G24    29.61F
SALT LAKE CITY PTSUNNY   50  24  36 NW20G31   29.83S
LOS ANGELES CA PTSUNNY   68  53  58 W20       29.78F
BOISE ID       CLOUDY    49  27  42 NW20G29   29.94F
SEATTLE WA     LGT RAIN  49  41  74 S15G23    30.07S
$$

*** WEATHER ACROSS MANITOBA...SASKATCHEWAN AND ONTARIO ***
                ***ONTARIO***

CITY           SKY/WX    TMP DP  RH WIND       PRES   REMARKS
GERALDTON      LGT SNOW  30  28  93 N10G17    29.29F FOG     WCI  21
THUNDER BAY    LGT SNOW  23  19  86 W13       29.42F VSB 3/4 WCI  11
SIOUX LOOKOUT  FRZ DRZL  23  19  86 N7        29.55S VSB 5/8 WCI  15
TORONTO        PTSUNNY   77  59  53 SE10      29.50F
BIG TROUT LK   CLOUDY    30   3  31 NE14G25   29.78F WCI  20
PICKLE LAKE    SNOW      23  21  93 N7        29.54F VSB 1/2 WCI  15
DRYDEN         LGT SNOW  25  21  86 NE13G20   29.55S WCI  13
KENORA         FLURRIES  27  18  69 N14G22    29.60S WCI  15
$$
                *** MANITOBA***

CITY           SKY/WX    TMP DP  RH WIND       PRES   REMARKS
BRANDON        MOSUNNY   48  27  43 NE22G31   29.77S
DAUPHIN        SUNNY     46  16  29 NE13G18   29.84F
ISLAND LAKE    PTSUNNY   41   1  19 N13       29.90F
PILOT MOUND      N/A     46  25  42 N18G26      N/A
THE PAS        CLOUDY    45   3  18 NE5       29.94F
THOMPSON       MOSUNNY   41   0  17 N6        29.99F
WINNIPEG       PTSUNNY   43  28  56 N32G43    29.70F
LYNN LAKE      SUNNY     43   9  24 E8        29.97F
CHURCHILL      SUNNY     36  14  41 S6        30.09F
GILLAM         PTSUNNY   37   0  20 E5        30.04F
$$
                ***SASKATCHEWAN***

CITY           SKY/WX    TMP DP  RH WIND       PRES   REMARKS
ESTEVAN        MOSUNNY   50  14  23 NE9G17    29.76S
KINDERSLEY     CLOUDY    36  32  87 NW3       29.76R
LLOYDMINSTER   LGT SNOW  34  32  93 E17       29.81R WCI  23
PRINCE ALBERT  PTSUNNY   46  12  25 SE9G18    29.88S
REGINA         PTSUNNY   50  14  23 E10G18    29.78R
YORKTON        SUNNY     50   5  16 NE10G20   29.81
N. BATTLEFORD  CLOUDY    41  30  65 E13       29.84R
LA RONGE       MOSUNNY   46   9  21 NE9       29.92S
SASKATOON      CLOUDY    48  19  32 E15       29.82S
SWIFT CURRENT  CLOUDY    46  30  53 S14G21    29.71R
$$
NOTE: THESE ARE AUTOMATED STATIONS WITH LIMITED QUALITY CONTROL
      "FAIR" INDICATES FEW OR NO CLOUDS BELOW 12,000 FEET WITH NO
      SIGNIFICANT WEATHER AND/OR OBSTRUCTIONS TO VISIBILITY.
      SKY/WX - SKY CONDITION AND SIGNIFICANT WEATHER.
      TMP - AIR TEMPERATURE.    DP   - DEWPOINT TEMPERATURE.
      RH  - RELATIVE HUMIDITY.  PRES - PRESSURE.
      HX  - HEAT INDEX.         WCI  - WIND CHILL INDEX.
$



USA.gov is the U.S. government's official web portal to all federal, state and local government web resources and services.